Lovelock, NV

12:09 PM PST on February 08, 2016 (GMT -0800)
Derby

Weather History for KLOL - December, 2012

Change the Weather History Date:

Sunday, December 30, 2012

  Actual Average Record
Temperature  
Mean Temperature 19 °F -  
Max Temperature 28 °F 38 °F 66 °F (2011)
Min Temperature 3 °F 12 °F -17 °F (1978)
Degree Days  
Heating Degree Days 46    
Moisture  
Dew Point 17 °F    
Average Humidity 89    
Maximum Humidity 96    
Minimum Humidity 69    
Precipitation  
Precipitation 0.01 in - - ()
Sea Level Pressure  
Sea Level Pressure 30.11 in    
Wind  
Wind Speed 4 mph (NE)    
Max Wind Speed 20 mph    
Max Gust Speed -    
Visibility 5 miles    
Events Fog , Snow    
Averages and records for this station are not official NWS values.
T = Trace of Precipitation, MM = Missing Value Source: NWS Daily Summary

Daily Weather History Graph

Daily Weather History Graph

Search for Another Location

Airport or City:

Trip Planner

Search our weather history database for the weather conditions in past years. The results will help you decide how hot, cold, wet, or windy it might be!

Date:

Astronomy

Dec. 30, 2012 Rise Set
Actual Time 7:16 AM PST 4:38 PM PST
Civil Twilight 6:45 AM PST 5:08 PM PST
Nautical Twilight 6:11 AM PST 5:42 PM PST
Astronomical Twilight 5:38 AM PST 6:15 PM PST
Moon 7:14 PM PST (12/30) 8:27 AM PST (12/30)
Length of Visible Light 10h 23m
Length of Day
9h 22m
Waning Gibbous, 95% of the Moon is Illuminated
Dec 30
Waning Gibbous
Jan 4
Last Quarter
Jan 11
New
Jan 18
First Quarter
Jan 26
Full

Hourly Weather History & Observations

Time (PST) Temp. Windchill Dew Point Humidity Pressure Visibility Wind Dir Wind Speed Gust Speed Precip Events Conditions
12:12 AM 19.9 °F 12.1 °F 18.0 °F 92% 30.00 in 1.8 mi SE 5.8 mph - 0.00 in Snow Light Snow
12:28 AM 19.9 °F 12.1 °F 18.0 °F 92% 30.00 in 2.5 mi SE 5.8 mph - 0.00 in Snow Light Snow
12:44 AM 19.9 °F 14.9 °F 18.0 °F 92% 30.00 in 1.5 mi ESE 3.5 mph - 0.00 in Snow Light Snow
12:53 AM 19.9 °F 14.9 °F 18.0 °F 92% 30.09 in 1.2 mi ESE 3.5 mph - 0.00 in Snow Light Snow
1:14 AM 19.9 °F - 19.0 °F 96% 30.00 in 2.0 mi Calm Calm - 0.00 in Snow Light Snow
1:33 AM 21.0 °F - 19.0 °F 92% 30.00 in 1.5 mi Calm Calm - 0.00 in Snow Light Snow
1:53 AM 21.0 °F - 19.0 °F 92% 30.10 in 1.8 mi Calm Calm - 0.00 in Snow Light Snow
2:02 AM 21.0 °F - 19.0 °F 92% 30.01 in 2.0 mi Calm Calm - 0.01 in Snow Light Snow
2:14 AM 21.0 °F - 19.0 °F 92% 30.01 in 1.8 mi Calm Calm - 0.01 in Snow Light Snow
2:20 AM 21.0 °F - 19.0 °F 92% 30.01 in 2.5 mi Calm Calm - 0.01 in Snow Light Snow
2:29 AM 21.0 °F - 19.0 °F 92% 30.01 in 4.0 mi Calm Calm - 0.01 in Snow Light Snow
2:41 AM 21.0 °F 16.2 °F 19.0 °F 92% 30.01 in 1.8 mi NW 3.5 mph - 0.01 in Snow Light Snow
2:53 AM 21.0 °F - 19.9 °F 96% 30.10 in 1.5 mi Calm Calm - 0.01 in Snow Light Snow
3:10 AM 21.0 °F - 19.9 °F 96% 30.01 in 2.0 mi Calm Calm - 0.00 in Snow Light Snow
3:36 AM 21.0 °F - 19.9 °F 96% 30.01 in 3.0 mi Calm Calm - 0.00 in Snow Light Snow
3:53 AM 21.0 °F - 19.9 °F 96% 30.10 in 2.5 mi Calm Calm - 0.00 in Snow Light Snow
4:03 AM 21.0 °F - 19.9 °F 96% 30.00 in 3.0 mi Calm Calm - 0.00 in Snow Light Snow
4:53 AM 19.0 °F - 18.0 °F 96% 30.11 in 4.0 mi Calm Calm - 0.00 in   Overcast
5:15 AM 18.0 °F 12.7 °F 17.1 °F 96% 30.00 in 1.8 mi NW 3.5 mph - N/A   Mostly Cloudy
5:25 AM 16.0 °F - 15.1 °F 96% 30.00 in 0.5 mi Calm Calm - N/A Fog Light Freezing Fog
5:34 AM 15.1 °F - 14.0 °F 95% 30.01 in 0.2 mi Calm Calm - N/A Fog Light Freezing Fog
5:37 AM 16.0 °F - 14.0 °F 92% 30.01 in 0.2 mi Calm Calm - N/A Fog Light Freezing Fog
5:51 AM 12.2 °F - 10.4 °F 92% 30.01 in 0.2 mi Calm Calm - N/A Fog Light Freezing Fog
5:53 AM 12.0 °F 5.9 °F 10.9 °F 95% 30.15 in 0.2 mi East 3.5 mph - N/A Fog Light Freezing Fog
6:03 AM 15.1 °F 9.4 °F 14.0 °F 95% 30.01 in 0.2 mi East 3.5 mph - N/A Fog Light Freezing Fog
6:12 AM 17.1 °F 8.7 °F 15.1 °F 92% 30.01 in 1.0 mi NE 5.8 mph - N/A   Overcast
6:16 AM 18.0 °F 11.1 °F 16.0 °F 92% 30.02 in 4.0 mi NNE 4.6 mph - N/A   Overcast
6:27 AM 21.0 °F 10.6 °F 19.9 °F 96% 30.02 in 10.0 mi North 9.2 mph - N/A   Overcast
6:42 AM 21.9 °F 11.0 °F 19.9 °F 92% 30.02 in 10.0 mi NNE 10.4 mph - N/A   Overcast
6:53 AM 21.9 °F 10.4 °F 19.9 °F 92% 30.14 in 10.0 mi NE 11.5 mph - N/A   Overcast
7:53 AM 21.9 °F - 19.9 °F 92% 30.16 in 10.0 mi Calm Calm - N/A   Overcast
8:53 AM 23.0 °F 13.1 °F 19.9 °F 88% 30.18 in 3.0 mi NNE 9.2 mph - 0.00 in Snow Light Snow
9:53 AM 24.1 °F 12.5 °F 19.9 °F 84% 30.20 in 10.0 mi NNE 12.7 mph - 0.00 in   Overcast
10:53 AM 26.1 °F 17.6 °F 19.9 °F 78% 30.20 in 10.0 mi North 8.1 mph - N/A   Partly Cloudy
11:24 AM 27.0 °F 16.7 °F 19.9 °F 75% 30.09 in 10.0 mi NNE 11.5 mph - N/A   Partly Cloudy
11:53 AM 28.0 °F 18.1 °F 21.0 °F 75% 30.18 in 10.0 mi NNE 11.5 mph - N/A   Partly Cloudy
12:53 PM 28.9 °F 18.6 °F 19.9 °F 69% 30.18 in 10.0 mi NNE 12.7 mph - N/A   Clear
1:53 PM 28.9 °F 16.1 °F 19.9 °F 69% 30.17 in 10.0 mi NE 19.6 mph - N/A   Partly Cloudy
2:53 PM 27.0 °F 14.7 °F 18.0 °F 69% 30.19 in 10.0 mi NE 16.1 mph - N/A   Mostly Cloudy
3:53 PM 25.0 °F 14.8 °F 17.1 °F 72% 30.21 in 10.0 mi NNE 10.4 mph - N/A   Clear
4:53 PM 21.0 °F 9.9 °F 15.1 °F 78% 30.25 in 10.0 mi NE 10.4 mph - N/A   Scattered Clouds
5:53 PM 18.0 °F 6.1 °F 12.9 °F 81% 30.30 in 10.0 mi NNE 10.4 mph - N/A   Clear
6:53 PM 15.1 °F 2.5 °F 10.0 °F 80% 30.30 in 10.0 mi NE 10.4 mph - N/A   Clear
7:53 PM 17.1 °F 6.6 °F 12.0 °F 81% 30.31 in 10.0 mi NNE 8.1 mph - N/A   Clear
8:53 PM 10.9 °F -0.8 °F 9.0 °F 92% 30.34 in 10.0 mi NE 8.1 mph - N/A   Clear
9:53 PM 14.0 °F 1.2 °F 10.9 °F 88% 30.33 in 10.0 mi NNE 10.4 mph - N/A   Clear
10:53 PM 10.0 °F -0.9 °F 6.1 °F 84% 30.35 in 10.0 mi NNW 6.9 mph - N/A   Clear
11:53 PM 3.9 °F - 3.0 °F 96% 30.37 in 10.0 mi Calm Calm - N/A   Clear